User: anonymous   Login
Location: Antioch Church
(34.9543°N, 88.5145°W)
Time: 06:39:59
(UTC+00:00)
Language:

Meteor 2-4 Rocket - Orbit

View from above orbital plane
View from above orbital plane
View from above satellite
View from above satellite

Ground track
Ground track

The orbit data is extracted from the following two-line orbital elements,

1 11289U 79021B   20049.76193955 +.00000157 +00000-0 +77559-4 0  9990
2 11289 081.2464 291.3715 0075358 343.3482 016.5216 14.11602576108352
Epoch (UTC): 18 February 2020 18:17:11
Eccentricity: 0.0075358
inclination: 81.2464°
perigee height: 799 km
apogee height: 908 km
right ascension of ascending node: 291.3715°
argument of perigee: 343.3482°
revolutions per day: 14.11602576
mean anomaly at epoch: 16.5216°
orbit number at epoch: 10835

The dashed part of the orbit path shows where the satellite is in the earth's shadow,  

DLR